User: anonymous   Login
Location: Treviso
(45.6669°N, 12.2430°E)
Time: 12:08:08
(UTC+02:00)
Language:

Gurwin Techsat 1B - Orbit

View from above orbital plane
View from above orbital plane
View from above satellite
View from above satellite

Ground track
Ground track

The orbit data is extracted from the following two-line orbital elements,

1 25397U 98043D   19113.60555681 -.00000009 +00000-0 +15080-4 0  9999
2 25397 098.6847 054.4427 0001352 148.7017 211.4242 14.23663838079674
Epoch (UTC): 23 April 2019 14:32:00
Eccentricity: 0.0001352
inclination: 98.6847°
perigee height: 812 km
apogee height: 814 km
right ascension of ascending node: 54.4427°
argument of perigee: 148.7017°
revolutions per day: 14.23663838
mean anomaly at epoch: 211.4242°
orbit number at epoch: 7967

The dashed part of the orbit path shows where the satellite is in the earth's shadow,  

DLR